Location: Castiglione Fibocchi
(43.5333°N, 11.7667°E)
Time: 08:51:08
(UTC+00:00)

USA 229 - Pass Details

Date: 15 August 2020
Orbit: 975 x 1237 km, 63.4° (Epoch: 17 September)

Event Time Altitude Azimuth Distance (km) Brightness Sun altitude
Exits shadow 00:36:55 86° 190° (S) 1,029 3.4 -29.7°
Maximum altitude 00:37:04 88° 129° (SE) 1,028 3.4 -29.7°
Drops below altitude 10° 00:43:55 10° 37° (NE) 2,906 6.9 -29.2°
Sets 00:46:39 0° 37° (NE) 3,904 7.8 -29.0°
